Flag for Uruguay Weather past 2 weeks in Mercedes, Uruguay

Now
57 °F

Clear.


Feels Like: 57 °F
Forecast: 56 / 69 °F
Wind: 3 mph from Northeast

Location: San Fernando - BA

Current Time: Aug 1, 2015 at 11:21:29 PM

Latest Report: Aug 1, 2015 at 11:00 PM


Visibility: 10 mi

Pressure: 29.77 "Hg

Humidity: 94%

Dew point: 55 °F

Location of MercedesLocation

Historic Weather in Mercedes — Graph

°F

Mercedes temperature yesterday

Maximum temperature yesterday: 68 °F (at 2:00 AM)
Minimum temperature yesterday: 52 °F (at 11:00 PM)
Average temperature yesterday: 62 °F

Past Weeks' High & Low Weather Summary

 TemperatureHumidityPressure
High81 °F (Jul 28, 3:00 PM)100% (Jul 18, 8:00 AM)30.33 "Hg (Jul 18, 8:00 AM)
Low32 °F (Jul 21, 5:00 AM)34% (Jul 19, 4:00 PM)29.65 "Hg (Jul 31, 4:00 AM)
Average55 °F79%30.07 "Hg
* Reported Jul 17 10:00 PM — Aug 1 10:00 PM, Mercedes, Weather by CustomWeather, © 2015

Note: Actual official high and low records may vary slightly from our data, if they occured in-between our weather recording intervals... More about our weather records

Advertising

Mercedes weather history for previous 24 hours

 ConditionsComfort  
Time TempWeatherWind HumidityBarometerVisibility
10:00 PM
Sat, Aug 1
57 °FClear.8 mph88%29.80 "Hg10 mi
9:00 PM57 °FMostly cloudy.12 mph77%29.80 "HgN/A
8:00 PM59 °FThundershowers. Mostly cloudy.13 mph77%29.83 "HgN/A
7:00 PM59 °FThundershowers. Partly cloudy.8 mph88%29.83 "HgN/A
6:00 PM59 °FBroken clouds.7 mph82%29.86 "HgN/A
5:00 PM61 °FSunny.8 mph68%29.86 "Hg10 mi
4:00 PM61 °FSunny.9 mph63%29.86 "Hg10 mi
3:00 PM59 °FSunny.8 mph68%29.92 "Hg10 mi
2:00 PM61 °FSunny.8 mph63%29.98 "Hg10 mi
1:00 PM59 °FSunny.12 mph63%30.01 "Hg10 mi
12:00 PM59 °FSunny.14 mph63%30.04 "Hg10 mi
11:00 AM57 °FSunny.13 mph72%30.04 "Hg10 mi
10:00 AM55 °FSunny.10 mph82%30.07 "Hg10 mi
9:00 AM55 °FSunny.8 mph88%30.07 "Hg10 mi
8:00 AM50 °FPartly sunny.No wind94%30.07 "Hg5 mi
7:00 AM46 °FClear.No wind93%30.07 "Hg4 mi
6:00 AM43 °FFog.No wind100%30.07 "Hg2 mi
5:00 AM45 °FClear.No wind100%30.07 "Hg10 mi
4:00 AM46 °FClear.No wind93%30.07 "Hg10 mi
3:00 AM46 °FClear.No wind93%30.09 "Hg10 mi
2:00 AM50 °FClear.2 mph94%30.07 "Hg10 mi
1:00 AM50 °FClear.No wind94%30.07 "Hg10 mi
12:00 AM50 °FClear.No wind88%30.07 "Hg10 mi
11:00 PM
Fri, Jul 31
52 °FClear.No wind88%30.04 "Hg10 mi
Weather by CustomWeather, © 2015

See weather overviewHow to use our weather pages